Weather History for Salina, KS

Change the Weather History Date:

Saturday, January 12, 2013

  Actual Average Record
Temperature  
Mean Temperature 26 °F 31 °F  
Max Temperature 33 °F 41 °F 65 °F (1996)
Min Temperature 18 °F 20 °F -20 °F (1918)
Degree Days  
Heating Degree Days 39 34  
Month to date heating degree days 400 408  
Since 1 July heating degree days 2177 2372  
Cooling Degree Days 0 0  
Month to date cooling degree days 0 0  
Year to date cooling degree days 0 0  
Moisture  
Dew Point 13 °F    
Average Humidity 58    
Maximum Humidity 69    
Minimum Humidity 46    
Precipitation  
Precipitation T in 0.02 in 0.53 in (1979)
Month to date precipitation 0.81 0.19  
Year to date precipitation 0.81 0.19  
Sea Level Pressure  
Sea Level Pressure 30.10 in    
Wind  
Wind Speed 14 mph (NNW)    
Max Wind Speed 25 mph    
Max Gust Speed 30 mph    
Visibility 10 miles    
Events Snow    
T = Trace of Precipitation, MM = Missing Value Source: NWS Daily Summary

Daily Weather History Graph

Daily Weather History Graph

Search for Another Location

Airport:

Trip Planner

Search our weather history database for the weather conditions in past years. The results will help you decide how hot, cold, wet, or windy it might be!

Date:

Astronomy

Jan. 12, 2013 Rise Set
Actual Time 7:48 AM CST 5:30 PM CST
Civil Twilight 7:18 AM CST 5:59 PM CST
Nautical Twilight 6:46 AM CST 6:32 PM CST
Astronomical Twilight 6:14 AM CST 7:04 PM CST
Moon 8:09 AM CST (1/12) 6:59 PM CST (1/12)
Length of Visible Light 10h 40m
Length of Day
9h 41m
New Moon, 1% of the Moon is Illuminated
Jan 12
New Moon
Jan 18
First Quarter
Jan 26
Full
Feb 3
Last Quarter
Feb 10
New

Hourly Weather History & Observations

Time (CST) Temp. Windchill Dew Point Humidity Pressure Visibility Wind Dir Wind Speed Gust Speed Precip Events Conditions
12:31 AM 30.2 °F 17.4 °F 21.2 °F 69% 29.91 in 9.0 mi NW 20.7 mph - 0.00 in Snow Light Snow
12:53 AM 30.9 °F 20.7 °F 21.9 °F 69% 29.94 in 10.0 mi NNW 13.8 mph - 0.00 in   Clear
1:53 AM 28.9 °F 16.9 °F 19.0 °F 67% 29.95 in 10.0 mi NNW 17.3 mph - 0.00 in   Scattered Clouds
2:53 AM 28.0 °F 17.0 °F 15.1 °F 58% 30.02 in 10.0 mi NNW 13.8 mph - 0.00 in   Clear
3:53 AM 27.0 °F 18.0 °F 15.1 °F 61% 30.04 in 10.0 mi NW 9.2 mph - N/A   Clear
4:53 AM 26.1 °F 16.8 °F 16.0 °F 66% 30.04 in 10.0 mi NNW 9.2 mph - N/A   Clear
5:53 AM 26.1 °F 16.2 °F 16.0 °F 66% 30.06 in 10.0 mi NW 10.4 mph - N/A   Clear
6:53 AM 25.0 °F 14.2 °F 15.1 °F 66% 30.07 in 10.0 mi NNW 11.5 mph - N/A   Partly Cloudy
7:53 AM 25.0 °F 14.8 °F 14.0 °F 63% 30.11 in 10.0 mi NW 10.4 mph - N/A   Scattered Clouds
8:53 AM 25.0 °F 12.2 °F 12.9 °F 60% 30.12 in 10.0 mi NNW 16.1 mph - N/A   Partly Cloudy
9:53 AM 26.1 °F 14.5 °F 12.9 °F 58% 30.16 in 10.0 mi NNW 13.8 mph - N/A   Scattered Clouds
10:53 AM 26.1 °F 13.1 °F 12.0 °F 55% 30.15 in 10.0 mi NNW 17.3 mph - N/A   Mostly Cloudy
11:53 AM 27.0 °F 14.7 °F 10.9 °F 51% 30.12 in 10.0 mi NNW 16.1 mph 23.0 mph 0.00 in   Scattered Clouds
12:53 PM 26.1 °F 13.1 °F 9.0 °F 49% 30.09 in 10.0 mi NNW 17.3 mph - 0.00 in   Overcast
1:53 PM 28.0 °F 15.3 °F 10.9 °F 49% 30.08 in 9.0 mi NNW 18.4 mph - N/A   Overcast
2:53 PM 27.0 °F 14.3 °F 10.0 °F 49% 30.08 in 9.0 mi North 17.3 mph - N/A   Overcast
3:53 PM 27.0 °F 15.6 °F 10.0 °F 49% 30.11 in 10.0 mi North 13.8 mph - N/A   Overcast
4:53 PM 26.1 °F 14.5 °F 10.9 °F 53% 30.14 in 10.0 mi North 13.8 mph - N/A   Overcast
5:53 PM 24.1 °F 11.0 °F 10.0 °F 55% 30.14 in 10.0 mi North 16.1 mph - N/A   Overcast
6:53 PM 23.0 °F 11.1 °F 10.0 °F 58% 30.19 in 10.0 mi North 12.7 mph - N/A   Mostly Cloudy
7:53 PM 21.9 °F 6.5 °F 9.0 °F 58% 30.16 in 10.0 mi NNW 20.7 mph - 0.00 in Snow Light Snow
8:53 PM 19.9 °F 8.6 °F 9.0 °F 62% 30.20 in 10.0 mi North 10.4 mph - 0.00 in   Clear
9:53 PM 19.9 °F 8.6 °F 9.0 °F 62% 30.19 in 10.0 mi North 10.4 mph - N/A   Clear
10:53 PM 19.0 °F 6.8 °F 10.0 °F 68% 30.20 in 10.0 mi NNW 11.5 mph - N/A   Clear
11:53 PM 18.0 °F 3.6 °F 9.0 °F 68% 30.21 in 10.0 mi NNW 15.0 mph - N/A   Clear